Theta_e
300 300 300 301 301 301 301 300 300 300 299 300 301 301 301 301 302 303 303 303 304 304 304 305 305 305 305 305 305 306 306 306 307 308 310 311 311 313 313 313 313 314 314 314 313 310 309 309 311 313 312 313 314 313 312 313 313 314 315 316 319 323 323 319 317 317 317 316 315 316 316 316 316 317 318 317 319 318 316 324 328 319 321 331 335 333 329
300 300 300 301 301 301 301 301 301 300 299 300 301 301 301 301 302 303 303 303 304 304 305 307 306 305 305 305 306 306 306 306 306 307 309 310 312 315 315 313 313 314 313 314 314 312 310 309 311 313 314 314 314 313 312 313 314 313 315 318 318 319 323 325 321 317 316 317 317 316 316 315 315 318 319 318 318 318 317 320 322 319 322 330 335 333 328
300 300 300 301 301 302 302 302 302 300 300 300 300 301 302 303 303 303 304 304 305 305 306 307 307 307 307 307 307 307 307 307 307 308 309 309 312 317 317 313 313 314 313 314 314 314 313 310 309 312 314 315 314 313 313 313 314 314 315 317 320 322 325 329 329 325 322 322 322 321 319 316 315 316 318 318 317 316 319 322 321 319 324 330 333 330 326
300 300 300 301 301 302 302 302 302 301 300 299 299 301 303 304 304 304 304 305 305 305 305 306 308 308 308 309 310 308 308 308 309 309 310 309 311 315 316 313 313 314 314 316 315 314 315 313 310 312 314 315 314 313 314 314 312 315 317 315 319 323 322 325 332 330 328 327 325 322 319 315 314 316 316 317 318 317 319 323 322 323 330 333 329 326 325
299 299 300 301 302 302 303 303 303 302 301 299 300 302 303 305 305 305 305 305 305 305 305 306 307 308 309 310 310 309 309 310 311 311 311 311 312 313 314 313 314 315 316 318 317 315 316 316 313 312 314 316 315 313 315 315 313 319 320 316 320 325 321 322 327 326 326 326 323 320 319 315 314 315 316 318 320 318 318 323 325 325 332 332 325 323 325
300 300 301 302 303 303 303 304 304 304 303 302 302 304 304 305 306 306 306 306 307 307 307 306 307 308 308 309 310 310 311 311 312 312 312 312 314 316 316 314 314 316 316 317 319 320 322 321 316 314 315 316 316 315 314 315 317 319 318 318 324 327 323 321 322 321 323 325 324 325 325 320 315 314 316 321 322 321 323 328 328 328 331 331 324 323 324
301 302 302 303 303 303 303 304 304 304 304 304 304 304 305 306 307 306 307 308 308 308 308 308 309 309 309 310 311 311 311 312 312 312 314 315 314 315 316 315 315 316 317 318 320 323 326 323 320 321 321 316 317 318 316 318 320 317 316 319 322 324 322 320 320 320 321 325 328 328 327 325 323 321 322 326 327 327 329 329 327 330 331 327 323 322 322
301 301 301 301 301 301 302 302 304 304 305 305 305 305 305 306 307 307 308 309 309 309 310 310 311 311 311 312 312 310 311 313 312 312 315 316 315 314 315 315 315 316 317 320 322 323 324 323 323 326 328 322 320 321 319 319 318 315 317 320 320 322 321 320 325 327 323 326 331 329 324 324 325 322 323 326 327 328 329 325 323 325 325 322 321 321 319
301 300 300 300 300 300 301 301 302 303 304 305 306 306 306 307 307 307 308 309 309 310 311 310 310 311 311 312 312 311 312 313 312 313 314 314 315 314 314 316 317 317 318 321 323 321 322 324 323 323 325 324 322 323 321 318 317 316 319 321 321 327 329 327 333 333 325 326 332 329 326 328 328 323 322 325 328 327 326 324 323 323 321 320 320 320 318
300 300 300 300 300 301 301 301 302 302 303 304 305 306 307 307 307 307 308 309 310 310 311 310 310 311 311 312 312 312 313 312 312 314 314 312 313 313 313 317 320 320 321 322 321 320 320 321 319 318 320 319 319 321 320 319 318 317 321 323 321 327 333 332 332 331 326 326 330 331 333 335 331 323 321 323 325 324 322 323 323 321 320 320 320 319 316
299 299 299 299 300 301 302 302 303 303 303 303 304 305 307 308 308 308 308 309 310 309 310 311 311 311 312 312 312 312 312 312 312 313 314 312 312 313 314 318 321 322 321 320 319 318 318 319 318 317 317 317 318 320 319 319 319 318 323 328 324 324 331 333 332 330 327 327 328 329 331 330 325 321 320 321 321 320 318 318 318 319 319 318 317 316 314
298 298 298 299 300 301 302 303 304 304 304 304 304 305 307 308 308 308 309 310 309 309 311 312 312 312 311 311 311 311 311 312 312 313 314 313 313 314 314 318 321 321 319 317 317 318 318 319 319 318 318 318 319 319 319 321 321 318 321 327 327 327 330 330 329 327 326 327 327 327 327 324 321 320 319 318 316 315 315 314 313 314 316 315 314 313 312
297 297 298 299 301 302 303 304 305 305 305 305 305 305 306 307 307 307 309 309 309 309 311 311 311 311 312 311 311 311 312 313 313 313 314 314 315 316 315 317 319 318 317 316 316 319 321 323 323 321 319 319 320 321 321 321 320 319 320 321 324 327 329 327 325 324 324 324 325 325 323 320 319 319 318 317 317 316 317 316 313 312 313 313 313 312 311
297 297 298 300 302 303 304 305 306 306 306 306 306 306 306 306 307 307 309 310 311 311 311 312 312 312 313 311 310 310 312 314 315 316 315 314 316 316 316 316 317 316 317 317 318 320 322 323 324 324 322 324 326 326 323 320 320 320 320 321 322 323 325 326 325 323 321 321 320 320 320 320 319 320 319 319 320 319 319 318 314 311 311 311 311 311 311
298 298 299 301 302 303 305 306 306 306 306 307 307 306 307 307 307 308 308 310 311 311 311 313 314 313 313 311 310 312 314 315 316 317 315 313 314 315 315 316 316 316 317 318 320 322 322 322 323 324 324 324 325 325 323 321 321 320 320 323 325 323 322 326 327 322 318 319 318 318 320 321 320 320 320 319 318 316 315 317 315 312 311 311 310 310 310
298 298 299 301 303 303 304 306 307 307 307 308 308 308 308 308 308 308 308 309 311 312 312 311 311 312 312 312 311 314 316 317 317 318 317 315 313 313 315 316 316 316 316 317 320 322 322 321 321 321 322 321 320 322 322 322 323 321 319 322 324 322 321 323 325 321 318 319 320 319 320 320 319 320 319 316 315 314 316 320 318 312 310 311 310 309 309
298 298 299 302 303 303 304 305 307 307 308 308 308 308 308 309 309 309 309 309 310 312 311 310 311 312 313 314 314 314 314 315 316 317 317 317 315 314 315 315 315 316 316 318 321 323 322 321 320 321 322 320 319 320 321 322 323 322 321 321 321 321 323 323 323 322 320 321 321 320 320 319 319 319 318 315 314 315 318 324 321 312 309 310 309 309 309
299 299 299 301 303 303 303 305 307 308 308 308 309 308 308 310 311 310 309 309 310 311 311 311 312 311 312 314 314 314 313 315 317 318 317 317 316 315 315 316 316 317 316 318 321 322 321 320 321 322 322 320 319 319 320 321 321 321 322 324 321 319 322 323 323 322 321 321 321 319 319 320 319 319 318 316 316 318 322 324 319 311 309 310 309 308 309
300 300 300 301 303 303 303 304 306 308 310 310 311 311 310 310 311 311 309 309 311 313 312 311 311 310 310 311 311 312 313 315 316 317 318 319 316 313 314 315 315 316 317 317 319 319 319 320 319 318 319 319 318 319 320 320 320 320 322 324 322 319 319 321 323 322 320 320 320 319 319 318 317 317 317 316 319 321 320 317 312 309 309 309 308 308 308
301 301 301 301 303 303 303 303 304 306 309 311 312 313 313 312 312 312 310 309 311 314 313 310 310 309 309 310 310 311 313 313 313 316 318 318 315 315 318 318 316 317 317 318 319 318 319 320 318 318 320 321 319 320 320 320 319 319 320 322 321 320 319 319 320 320 320 320 319 320 321 318 316 317 317 317 319 318 313 310 309 309 308 308 308 308 307
302 303 302 302 302 303 303 303 304 304 306 309 312 313 314 313 314 314 312 310 311 313 313 310 311 311 309 309 310 310 312 313 313 314 316 315 314 317 320 319 317 317 317 318 320 318 318 320 318 318 320 320 320 321 322 321 319 318 319 321 322 321 320 320 320 318 319 321 320 319 319 317 315 317 317 316 315 313 309 309 309 308 308 307 307 307 307
303 303 303 303 303 303 303 303 304 304 304 306 309 312 313 313 314 315 315 313 312 313 313 311 311 311 309 309 310 310 311 312 312 313 315 315 314 316 316 315 316 316 315 318 320 319 318 319 318 318 319 320 320 320 321 322 322 320 319 321 322 320 318 319 318 316 317 319 318 316 315 314 314 315 314 312 311 310 309 309 308 308 308 307 307 306 307
302 304 304 304 303 303 303 303 303 304 304 304 306 309 312 313 314 315 315 314 314 315 313 310 310 310 309 309 309 310 310 312 313 313 314 316 316 315 314 314 316 316 314 316 318 319 319 319 318 319 320 319 319 319 319 319 320 319 318 318 318 316 314 315 317 315 315 315 314 313 313 313 313 313 312 311 311 310 309 309 308 308 308 307 307 307 307
302 303 305 305 304 304 304 303 303 304 305 304 304 306 310 313 313 314 314 315 315 315 313 310 308 309 309 309 309 310 310 311 313 313 313 314 315 315 313 312 314 315 314 313 313 315 315 315 316 320 321 318 317 320 320 318 318 319 319 317 315 314 314 315 316 316 316 316 314 313 313 313 312 312 312 311 310 310 309 309 309 309 308 308 307 307 306
301 303 304 305 305 304 304 304 303 304 305 305 304 304 307 311 312 313 313 312 313 314 314 312 309 308 309 309 309 310 310 311 312 313 313 313 313 314 314 312 312 313 313 312 312 313 313 313 315 320 322 318 315 318 320 318 317 317 318 317 316 315 315 315 315 315 316 316 314 312 313 312 312 312 311 311 311 310 310 310 309 309 308 308 307 307 306
300 302 304 305 305 305 305 304 304 303 304 305 304 303 305 309 312 313 312 308 309 312 314 312 310 308 309 309 309 310 311 311 311 312 313 313 313 314 314 313 313 313 312 312 313 312 313 315 318 321 322 319 316 316 317 317 316 317 317 316 315 315 315 315 314 314 314 314 313 312 313 312 311 311 311 311 311 310 310 309 309 309 308 307 307 306 306
299 300 302 304 305 305 305 304 304 303 304 304 304 304 307 310 312 313 311 307 308 314 315 313 311 310 309 308 309 309 310 311 311 312 312 313 313 314 314 313 314 313 312 312 313 312 314 318 320 318 318 317 316 316 315 315 316 318 317 314 313 314 314 313 313 313 313 313 312 312 313 312 311 311 311 310 310 309 309 309 308 308 307 306 306 306 306
298 300 301 302 304 305 305 304 304 303 304 304 304 307 310 312 312 312 310 306 307 312 314 313 312 310 309 308 309 309 310 310 311 311 312 312 312 312 312 312 313 312 312 313 314 314 316 319 318 315 315 315 316 315 315 315 317 317 315 313 313 313 312 312 312 313 313 312 311 311 312 311 310 310 310 309 309 309 309 308 308 307 307 306 306 306 306
298 299 300 301 303 304 305 304 304 304 304 304 304 307 311 312 311 310 308 306 305 307 311 313 311 309 308 308 308 309 310 310 310 311 311 311 311 311 311 311 311 311 311 312 312 313 314 315 314 314 315 314 315 316 316 317 317 315 313 312 313 313 312 312 311 312 311 311 312 311 311 310 310 310 309 309 309 308 308 307 307 307 306 306 306 306 305
297 298 299 300 301 303 304 304 304 304 304 304 304 306 309 311 311 307 305 306 306 306 310 313 311 308 308 308 307 308 309 309 310 310 310 310 310 310 310 310 310 310 310 310 311 311 312 312 312 313 312 311 313 316 316 315 315 313 312 312 312 313 313 312 311 311 311 311 311 311 310 310 309 309 309 309 308 308 307 307 307 306 306 306 306 306 306
296 298 299 300 300 301 303 304 304 304 304 304 304 306 308 309 308 306 305 306 306 306 310 313 311 308 308 308 307 308 309 309 309 310 310 310 309 309 309 310 310 310 310 310 310 310 311 311 311 312 311 310 312 315 315 315 315 312 311 312 312 312 312 312 311 311 311 311 311 310 309 309 309 309 309 308 308 307 307 307 307 307 306 306 306 306 305
296 297 298 299 300 300 301 303 303 304 304 304 304 305 306 306 305 305 306 306 306 306 309 311 310 308 308 308 307 308 309 309 309 309 309 310 310 309 309 309 309 310 310 310 310 310 311 311 311 311 310 310 312 313 313 314 314 312 311 312 311 311 311 311 311 311 311 311 310 309 309 309 309 308 308 308 308 308 307 307 307 306 306 305 305 304 303
297 297 298 299 300 300 301 302 302 303 304 304 304 306 309 308 305 304 306 306 306 307 309 309 308 308 308 308 308 308 308 309 309 308 308 310 310 310 309 309 309 309 309 309 310 310 310 310 311 311 311 310 312 313 313 313 312 311 311 311 310 310 310 310 310 310 310 310 310 309 309 309 308 308 308 308 307 307 307 307 307 306 305 305 305 303 302
297 297 298 299 300 300 300 301 301 302 303 304 305 308 311 310 307 305 305 305 306 307 309 308 307 308 308 309 310 309 308 308 308 308 308 309 309 309 309 308 308 309 309 309 309 310 310 310 310 312 311 310 311 313 312 311 310 310 311 311 310 310 310 310 310 310 310 310 310 309 309 309 308 308 308 307 307 307 307 306 306 306 305 304 304 303 302
296 297 297 298 299 300 300 300 301 301 301 303 305 308 310 309 306 304 304 305 306 310 311 309 308 308 309 310 310 309 307 306 307 308 308 308 308 308 308 308 308 309 310 309 309 310 311 309 309 311 311 310 311 312 311 310 309 309 310 310 310 309 310 309 309 309 309 309 309 309 309 309 308 307 307 307 307 307 306 306 306 306 304 303 302 302 301
296 296 297 297 298 299 300 300 301 301 301 303 306 308 310 309 306 304 304 304 306 309 309 309 309 310 310 310 309 308 306 307 308 307 307 308 308 308 308 309 309 309 309 309 309 311 311 309 309 311 312 311 311 311 310 309 309 309 309 309 309 309 309 309 309 309 309 309 309 309 308 308 307 307 307 307 307 306 306 306 306 305 303 302 302 302 301
296 296 297 297 298 299 300 301 302 303 304 305 307 308 308 308 305 304 303 304 306 307 308 309 312 312 310 309 308 307 307 309 308 307 307 307 307 307 307 309 309 308 309 310 311 311 310 309 310 312 312 311 310 309 309 309 309 309 308 308 308 308 309 309 308 309 309 309 309 308 308 307 307 307 307 307 306 306 306 305 305 304 303 302 302 302 302
297 297 298 298 300 302 303 305 306 307 307 307 306 306 306 306 305 305 305 306 307 308 309 310 311 310 309 309 309 307 309 310 309 307 307 307 306 306 307 308 308 308 309 310 310 309 309 310 311 312 311 309 309 309 309 309 309 308 308 308 308 308 309 308 308 308 308 308 308 308 307 307 307 307 307 306 306 305 305 305 305 304 303 303 303 302 302
299 302 304 303 304 306 307 308 307 307 306 306 305 304 305 306 306 306 307 306 307 307 308 309 308 307 309 311 310 307 308 311 311 310 309 307 307 307 307 308 307 307 307 308 308 307 309 309 310 311 310 309 309 309 309 308 308 308 308 308 308 308 308 308 308 308 308 308 308 307 307 307 307 307 306 306 305 305 305 305 304 304 303 303 303 303 302
299 303 307 307 305 306 307 308 306 305 305 306 305 304 305 306 306 306 307 307 306 307 307 307 307 307 308 311 310 308 307 309 311 311 309 308 307 306 307 308 306 306 307 308 306 306 309 309 309 311 311 310 309 309 309 308 308 308 308 308 308 308 308 308 308 308 307 307 307 307 307 307 307 306 306 305 305 305 305 304 304 303 303 303 302 302 302
297 300 304 306 305 304 305 305 305 305 305 306 306 305 305 306 306 305 306 306 307 306 305 306 308 308 308 309 309 308 308 309 309 308 308 308 307 306 307 307 306 305 307 307 305 306 310 309 309 311 311 310 309 309 309 309 308 308 308 308 308 308 308 308 307 307 307 307 307 307 307 307 306 306 306 305 305 305 304 304 303 303 302 302 302 301 302
300 301 303 303 303 303 303 304 305 305 306 306 306 305 305 305 306 306 306 306 306 307 306 307 308 309 308 308 308 308 308 308 307 306 307 307 305 305 306 307 305 306 307 306 305 306 307 307 309 310 310 309 309 309 309 309 309 308 308 308 308 307 307 307 307 307 307 307 307 307 307 307 306 306 306 305 305 305 304 303 303 302 302 302 302 301 302
302 303 302 302 302 302 304 305 305 305 305 305 305 305 306 305 305 306 306 305 305 306 307 307 308 308 308 308 308 307 307 306 306 307 307 306 304 305 306 305 305 306 306 305 306 306 306 308 311 311 309 308 309 309 309 309 308 308 308 308 307 307 307 307 307 307 307 307 307 307 306 306 306 306 305 305 304 304 303 303 302 302 302 302 302 302 302
304 304 304 304 304 303 304 305 305 304 304 305 305 305 306 306 306 307 308 308 306 306 307 308 308 308 309 308 307 306 306 306 306 307 306 305 305 306 305 305 305 306 305 305 307 308 307 309 311 310 308 308 309 308 308 309 308 308 307 307 307 307 307 307 307 307 307 307 307 306 306 306 306 305 305 304 304 303 303 302 302 302 302 302 302 302 302
305 306 306 305 304 303 302 304 304 304 304 305 305 305 307 308 308 308 308 308 307 307 308 307 307 308 308 308 307 306 305 305 306 306 305 305 305 306 305 305 306 306 305 306 307 307 308 310 310 308 308 309 308 308 308 308 308 307 307 307 306 307 307 307 307 307 307 307 307 306 306 306 305 304 304 303 303 303 302 301 301 302 303 302 302 302 302
304 305 305 304 303 302 302 303 304 304 304 305 305 306 306 307 307 307 307 306 306 307 307 307 307 308 308 307 307 306 305 304 305 306 305 305 305 305 305 305 306 305 306 307 307 307 309 311 310 308 307 308 308 307 307 307 307 307 307 306 306 307 307 307 307 306 306 305 305 305 305 304 303 303 303 303 302 302 302 302 302 302 302 303 302 302 301
303 304 304 303 303 302 302 302 303 304 304 304 304 305 305 305 305 305 306 306 307 307 308 307 308 308 307 306 307 307 306 305 306 306 305 305 306 306 305 305 306 306 306 307 308 308 310 310 309 308 308 308 308 307 307 307 307 307 306 306 307 306 306 305 305 305 305 305 304 304 304 304 303 303 303 302 303 303 302 302 302 302 302 302 302 302 301
302 303 303 303 303 302 302 302 302 302 302 303 304 304 304 305 305 305 306 306 307 308 308 308 308 308 307 306 307 308 307 306 306 306 305 307 307 306 305 305 306 306 306 308 311 312 310 308 309 309 308 308 308 308 307 307 307 306 306 306 306 305 305 305 305 304 304 304 304 304 303 303 303 303 302 302 303 303 303 302 303 303 302 302 302 302 302
301 301 302 303 304 303 302 302 302 301 302 302 303 303 304 304 305 305 306 307 307 308 308 308 308 308 307 307 307 307 308 307 307 306 306 306 306 306 305 304 305 306 307 310 312 311 309 308 309 309 308 308 308 308 307 307 307 306 306 306 306 305 305 305 305 304 304 304 304 304 303 303 303 303 303 303 303 303 302 302 303 303 302 302 302 302 302
300 300 301 303 304 304 303 302 303 304 304 303 302 303 304 305 305 305 306 307 307 307 308 308 308 307 307 307 306 306 307 308 307 306 306 306 306 306 305 304 305 308 311 310 308 308 309 309 309 309 308 308 308 307 307 307 307 306 306 306 306 305 305 305 305 305 305 304 304 304 303 303 303 303 303 303 303 303 303 303 302 302 303 303 302 302 302
299 299 300 301 303 304 304 303 303 304 304 303 303 304 304 305 305 305 305 306 307 308 308 308 308 307 307 307 306 306 306 307 307 306 307 307 306 306 306 307 309 311 310 307 306 308 310 309 308 308 308 308 308 308 307 307 307 307 306 306 306 306 306 305 305 305 304 304 304 304 303 303 303 303 303 303 303 303 303 303 302 302 303 303 302 302 302
299 299 300 300 300 301 302 302 302 302 302 303 303 304 304 305 306 306 305 305 307 308 308 308 308 307 307 307 307 306 306 307 307 307 307 307 306 307 308 309 309 308 306 306 307 309 309 308 308 308 308 308 307 307 307 307 307 307 306 306 306 306 305 305 305 304 304 304 304 304 303 304 304 304 303 303 303 303 303 303 303 303 303 303 302 302 302
Wind_Speed
13 14 14 13 13 13 11 10 11 10 6 2 2 5 5 3 4 2 11 18 17 12 3 3 4 3 6 10 13 13 12 10 8 7 7 7 6 3 3 6 6 4 5 5 5 5 8 9 8 7 9 9 9 15 22 20 15 10 6 6 6 5 4 4 3 3 4 8 8 8 8 6 6 6 4 4 5 5 6 5 3 2 2 4 4 2 2
13 12 13 13 13 12 11 10 11 10 6 5 6 6 5 5 5 2 14 18 14 7 2 2 3 4 7 10 11 14 15 12 8 7 7 5 4 3 4 6 4 4 7 7 6 5 4 8 9 6 7 10 15 22 26 21 12 9 7 6 7 6 2 4 4 1 2 3 2 4 8 6 3 3 4 3 5 6 4 2 1 2 2 7 6 1 1
13 12 11 12 12 11 12 11 10 10 8 8 7 7 7 6 2 6 13 14 10 7 5 2 2 4 6 8 9 11 12 10 8 8 9 8 4 1 3 11 10 6 7 6 7 8 5 6 10 8 5 9 14 20 28 23 12 11 14 12 9 6 2 4 5 4 4 5 4 4 6 4 3 4 6 6 6 6 4 2 2 3 2 7 7 3 3
15 12 9 9 10 10 10 9 9 9 8 7 6 7 7 4 1 5 8 10 10 10 9 6 3 3 5 6 7 8 8 7 9 11 10 10 8 4 4 12 12 6 5 5 6 8 7 3 5 9 5 5 8 15 23 22 16 18 21 18 10 3 2 5 6 6 6 5 4 3 4 6 5 5 7 8 6 6 5 3 2 4 4 4 3 11 12
14 12 7 6 7 7 8 9 8 7 6 6 6 6 5 3 0 2 5 6 7 9 10 9 5 5 5 3 4 8 9 7 7 10 7 5 5 3 5 9 8 5 6 5 5 6 7 9 3 9 5 1 5 10 14 16 18 18 18 19 11 3 1 5 6 6 5 3 3 6 1 7 9 8 8 8 7 9 8 4 5 7 6 3 4 16 18
13 11 8 6 7 8 9 10 8 7 5 5 6 6 4 3 3 2 2 3 3 3 6 7 6 7 8 4 4 7 9 6 5 8 7 8 8 2 3 8 6 8 9 5 5 6 7 9 4 8 5 1 3 5 6 8 15 15 12 11 8 5 1 4 5 5 5 6 7 8 7 2 4 8 9 6 6 9 7 4 7 9 7 5 10 15 16
14 13 10 8 9 10 11 10 7 5 5 5 5 5 4 3 5 6 4 1 3 3 3 4 5 7 6 4 3 5 7 6 6 6 4 5 7 3 3 7 8 11 11 6 5 5 4 4 7 0 4 1 3 3 3 4 11 14 8 4 5 5 2 2 3 4 4 8 8 9 8 8 7 5 5 6 4 7 7 5 5 8 10 13 15 12 11
14 13 12 11 12 12 11 10 8 5 5 6 5 4 5 5 5 7 6 4 6 6 3 2 4 4 3 3 4 5 6 5 5 6 3 2 6 5 5 6 8 9 9 6 5 4 3 3 6 6 2 3 1 3 0 1 6 9 5 3 5 5 1 1 3 2 3 7 10 10 9 10 11 13 14 13 11 12 12 10 12 14 13 15 17 13 8
14 15 15 15 14 12 11 10 9 8 6 6 5 4 7 9 6 6 5 4 4 4 3 2 3 2 1 2 3 4 5 6 7 6 6 6 7 7 7 6 6 6 7 6 4 7 5 2 7 8 3 4 4 4 1 3 1 6 3 3 4 5 1 1 5 4 3 5 8 8 7 8 11 13 13 11 8 8 7 6 7 12 16 17 15 10 6
16 17 18 18 16 14 11 9 8 9 8 7 6 6 7 9 7 5 4 3 4 4 3 3 3 2 2 3 4 4 5 8 8 5 7 9 10 10 9 2 3 4 5 4 4 8 10 7 8 8 6 4 10 10 6 10 6 3 3 4 3 5 4 2 4 4 3 4 5 6 5 5 6 6 6 5 4 8 9 8 7 10 16 14 9 8 9
17 18 18 19 19 16 13 9 8 9 10 9 9 7 5 8 9 7 4 2 3 3 3 2 2 1 4 6 7 7 7 8 7 4 4 6 9 14 10 2 2 3 3 4 7 7 8 8 8 14 15 12 17 18 14 15 14 7 2 5 3 5 7 3 3 4 1 5 4 5 4 1 2 4 4 1 6 11 12 9 7 7 7 6 7 11 14
17 18 19 20 21 18 14 10 7 9 9 10 10 7 3 5 7 6 3 1 3 5 4 3 3 3 7 8 7 8 8 9 10 11 10 7 10 16 10 3 3 2 2 5 6 4 5 6 8 14 18 15 15 17 17 15 18 17 7 8 6 7 7 3 3 5 1 4 4 3 2 3 3 3 4 8 12 16 18 12 7 6 9 13 15 15 16
17 18 19 21 21 19 14 10 6 7 7 8 8 5 2 3 4 4 3 1 2 2 1 4 7 9 10 9 8 10 11 12 15 17 15 8 6 11 6 4 3 2 1 2 4 5 5 5 5 7 10 9 7 11 13 14 16 18 12 7 6 6 7 4 3 3 3 3 3 2 3 2 1 3 5 8 8 9 12 12 8 5 9 15 16 13 15
18 19 20 22 21 18 14 9 6 5 4 4 4 3 2 2 1 2 4 2 2 4 5 4 6 8 8 6 7 10 11 11 11 7 7 5 4 8 6 4 3 3 5 4 7 8 4 2 4 5 6 6 4 5 8 8 10 12 12 9 8 5 5 5 4 3 3 4 2 2 0 1 2 3 3 4 3 1 3 6 5 4 7 13 16 12 14
20 20 21 22 21 18 14 9 5 3 2 1 1 2 3 4 3 2 3 3 3 5 6 5 4 5 4 4 5 5 4 5 7 4 3 3 1 6 7 5 4 7 9 6 5 5 3 2 4 3 3 3 2 1 4 3 4 9 9 8 9 7 3 5 5 2 3 5 3 1 1 3 5 5 4 3 9 9 7 5 4 5 10 17 17 13 15
20 20 21 22 21 17 13 9 5 2 3 2 1 1 1 1 1 2 4 3 2 4 6 8 8 6 4 6 8 4 3 2 4 3 1 2 2 5 7 5 5 7 7 6 4 3 3 3 3 3 0 1 1 1 1 0 2 7 9 10 11 10 5 4 6 3 3 5 3 3 2 2 5 7 3 7 15 13 8 4 1 7 16 22 21 17 20
20 20 21 22 21 18 14 10 6 2 2 2 2 2 3 2 4 5 5 4 4 8 12 13 11 5 4 5 7 2 2 3 3 1 1 1 4 8 9 8 5 5 6 4 2 3 4 3 3 2 1 1 1 1 1 1 2 2 5 9 10 7 4 3 6 4 3 4 3 2 1 3 5 6 6 12 14 10 6 1 4 10 21 26 25 23 24
19 20 21 22 22 20 17 13 9 5 2 2 2 3 3 3 5 5 7 6 5 7 15 16 6 3 3 1 3 2 3 3 2 1 2 4 3 2 9 7 2 3 5 3 3 3 3 2 2 2 0 1 1 1 1 1 2 2 2 4 4 1 2 2 5 4 4 4 3 1 1 3 3 7 11 14 11 6 3 3 7 18 27 26 27 28 27
18 19 20 21 21 20 18 16 13 9 6 5 3 1 3 6 7 5 8 8 5 6 15 18 9 8 7 3 2 3 5 4 4 3 2 2 6 5 3 4 2 1 3 2 3 3 2 2 2 2 0 2 1 2 1 1 1 2 3 3 2 1 1 2 3 3 3 3 2 2 1 3 2 7 10 11 7 1 2 5 16 29 31 26 27 28 27
16 17 18 19 20 20 19 18 16 12 9 7 6 4 5 7 8 7 7 8 8 12 16 16 13 13 12 11 11 12 11 9 5 2 1 2 5 5 4 2 2 2 2 3 3 2 2 3 3 2 2 2 1 3 3 2 2 1 3 3 2 2 2 2 2 2 2 3 3 3 2 4 6 7 5 3 3 5 9 17 23 29 31 28 27 27 28
13 15 16 18 18 18 19 19 18 16 13 10 9 9 7 8 11 11 9 9 9 11 12 15 14 14 14 15 14 13 11 8 5 2 2 4 4 2 2 1 2 1 1 2 2 1 2 3 2 1 1 1 0 2 3 3 2 2 2 4 1 1 2 2 1 1 2 3 3 2 1 5 10 8 4 5 9 16 24 28 26 26 29 29 27 28 29
11 12 14 15 16 16 17 17 18 18 15 12 11 11 9 9 12 12 11 12 12 12 14 17 16 13 12 14 15 13 11 10 9 8 6 5 3 1 3 4 4 2 1 2 2 1 1 2 2 2 2 1 1 3 3 3 1 3 2 3 1 2 2 6 4 0 2 4 3 3 9 13 13 13 16 19 21 23 28 30 29 28 29 28 29 30 28
9 10 11 12 14 14 15 15 16 16 16 14 12 10 9 9 9 9 11 14 15 16 19 16 12 11 13 15 15 13 12 12 12 12 11 7 4 5 8 8 5 4 1 2 1 2 2 2 2 2 3 1 2 4 3 2 2 1 1 3 2 2 6 10 6 3 5 8 8 10 16 19 20 22 25 26 25 24 26 28 29 28 28 29 30 30 29
8 9 9 10 11 12 13 14 14 14 14 14 13 11 8 7 8 10 12 12 12 13 13 10 11 14 15 14 14 13 13 13 12 12 12 9 6 6 7 5 4 5 3 2 4 5 3 2 1 2 3 0 1 4 3 3 4 4 3 4 1 2 6 7 4 4 5 4 5 10 15 19 22 24 25 26 26 26 26 27 27 27 28 29 31 31 32
8 8 8 8 10 10 11 13 13 13 13 13 13 12 9 7 8 9 11 12 11 8 6 4 6 11 13 13 14 14 14 13 11 10 11 11 8 6 4 5 5 4 4 6 8 6 2 2 1 3 3 1 2 3 3 4 4 4 4 4 2 3 7 8 4 3 5 4 7 15 21 22 23 24 24 25 26 25 25 26 27 27 28 30 31 32 33
8 8 8 7 8 10 11 12 12 13 12 11 11 12 10 7 7 6 10 14 12 7 5 3 2 8 12 13 14 14 13 12 11 9 9 10 9 7 6 7 7 5 5 5 6 8 5 2 2 3 3 2 4 3 3 4 4 5 4 3 3 7 8 6 4 6 6 6 11 17 19 16 17 21 23 23 25 26 27 27 28 28 29 30 30 30 30
9 8 8 8 8 9 10 11 12 12 11 10 9 9 8 6 5 6 10 14 11 3 2 4 7 7 10 11 12 13 13 12 12 11 9 9 8 7 8 9 10 10 7 3 4 8 8 5 4 3 3 4 6 6 6 5 5 5 3 4 5 7 6 5 7 8 4 3 10 14 10 8 13 20 24 24 26 28 28 27 27 27 28 29 30 29 28
10 9 9 8 8 8 10 11 11 12 12 11 9 7 5 4 4 7 10 11 9 4 5 10 13 8 6 8 9 11 12 12 12 12 12 11 10 10 10 11 11 12 11 7 6 6 5 3 3 3 3 5 5 5 6 6 6 4 3 6 8 6 9 9 7 6 6 11 16 15 11 12 17 24 27 28 28 28 27 27 28 28 29 30 30 29 30
11 10 10 9 9 9 9 10 10 11 13 13 11 8 4 1 2 6 8 9 10 9 9 11 10 4 3 5 7 7 10 11 11 11 11 12 12 11 12 13 13 13 12 11 8 5 4 3 3 3 4 5 2 3 4 5 4 3 6 10 12 7 13 17 12 9 12 18 21 19 18 21 25 29 30 28 28 28 28 28 28 28 29 29 29 31 32
11 10 10 10 10 9 9 9 9 10 11 13 13 10 5 2 4 5 7 7 10 11 8 6 4 1 2 4 6 5 6 8 8 9 9 11 11 11 11 12 13 12 12 12 8 4 3 3 3 5 6 7 4 3 2 3 3 3 8 14 15 12 11 17 20 21 21 22 22 24 25 27 29 30 29 27 28 29 28 28 28 28 28 29 30 30 30
12 10 10 10 10 10 10 9 8 9 9 11 11 8 4 2 4 5 7 7 9 11 9 6 5 4 1 2 3 5 5 4 5 6 7 8 9 10 10 10 11 12 13 12 9 5 3 3 4 5 7 9 6 3 3 4 3 2 8 16 19 18 18 20 25 29 29 28 29 28 28 30 30 27 25 27 29 28 28 28 28 27 27 28 28 28 28
11 10 10 10 10 10 11 10 9 9 8 8 8 7 6 7 8 8 8 7 8 9 9 6 5 3 2 3 1 3 3 2 0 3 6 6 6 7 9 10 10 10 10 9 7 5 4 5 6 7 9 9 5 3 4 5 4 5 11 19 21 22 25 25 26 29 31 33 33 28 24 25 27 25 26 29 29 28 27 28 28 27 28 29 28 27 26
11 10 10 10 10 10 10 10 10 10 9 7 7 8 7 8 9 9 8 8 9 9 8 5 3 1 1 2 2 2 5 5 2 2 5 5 3 3 5 6 7 6 6 5 3 2 3 5 6 7 10 10 7 4 3 4 7 12 18 21 22 24 26 27 28 29 30 33 33 29 25 26 26 26 28 30 30 28 28 28 29 29 28 28 29 29 27
10 10 10 10 11 10 9 9 10 10 10 9 8 8 8 9 9 8 7 8 9 9 6 5 3 2 2 2 2 0 4 5 4 4 4 4 3 2 4 3 3 4 3 3 4 2 2 4 4 4 6 9 8 5 2 4 12 19 21 20 23 25 24 24 26 26 24 25 28 29 29 29 28 28 30 30 30 29 29 30 31 29 27 28 30 30 28
9 9 9 10 10 10 10 11 10 10 9 9 9 8 7 8 9 8 6 7 7 5 3 5 5 3 2 1 0 0 1 4 5 3 2 3 4 5 5 3 3 3 1 2 4 2 1 2 2 2 2 4 5 2 2 6 15 20 19 17 20 22 22 22 22 21 19 21 24 26 28 30 31 31 31 30 30 30 29 30 29 26 27 30 31 29 28
8 8 9 9 8 9 9 9 8 8 8 8 7 7 8 10 11 9 7 8 8 5 4 5 4 3 2 1 1 2 2 3 2 2 4 4 2 3 3 3 2 3 3 3 3 2 3 3 3 2 2 2 3 3 8 14 18 19 18 16 15 17 19 21 21 20 21 23 25 27 29 30 31 30 29 30 30 29 29 29 27 25 29 32 31 28 28
8 8 8 6 5 6 6 4 4 7 8 8 8 10 11 12 11 8 8 9 9 9 8 4 3 5 6 3 1 1 0 2 3 2 3 2 0 0 2 3 1 1 4 4 2 2 7 8 6 3 3 3 6 10 15 19 19 18 18 15 13 14 18 21 22 23 24 25 26 28 29 29 28 28 28 29 29 28 29 28 27 27 31 33 30 29 28
7 6 5 4 3 3 3 0 2 4 6 7 8 9 8 8 6 5 6 7 6 7 8 5 5 10 11 5 2 2 1 1 1 0 1 1 1 2 2 2 0 1 1 2 0 2 6 6 4 3 3 6 12 16 17 17 17 16 15 14 14 16 20 22 24 27 27 26 26 27 28 28 28 28 28 28 29 30 29 28 26 28 31 30 28 29 29
6 3 1 1 3 3 1 2 2 2 4 5 6 5 4 5 3 2 4 6 4 5 7 6 7 11 7 0 2 1 2 3 2 1 1 1 1 1 1 0 1 1 1 0 1 1 2 2 2 3 2 3 8 14 15 15 15 14 13 14 17 19 21 23 27 29 28 26 25 27 28 29 30 30 29 30 30 30 28 26 26 29 31 29 27 29 29
7 3 2 2 2 3 3 2 1 1 2 3 4 3 3 4 4 2 3 3 2 4 5 5 8 8 3 3 1 1 3 3 3 1 2 2 1 1 0 0 1 2 1 1 2 2 3 1 2 3 2 3 9 15 17 16 15 15 16 17 19 21 23 24 26 27 26 25 25 25 27 29 30 30 31 31 31 29 28 26 26 28 30 29 26 25 25
5 3 2 2 4 3 2 2 2 2 3 3 3 2 2 3 3 3 1 1 1 3 5 5 7 7 2 2 3 1 4 3 4 2 2 1 2 2 1 0 1 2 1 2 3 3 2 2 2 2 4 9 16 19 19 18 18 18 18 20 22 23 24 24 24 24 24 25 25 25 27 29 30 30 30 30 29 28 27 27 27 28 29 27 24 22 22
6 4 3 4 5 3 2 2 3 4 2 2 1 1 1 2 2 2 2 2 1 2 5 6 2 3 3 7 6 5 4 3 3 4 1 0 1 1 0 0 1 1 1 2 3 2 2 2 2 2 7 17 23 22 20 21 22 22 22 23 23 22 23 24 24 23 24 26 27 27 27 28 29 30 29 29 28 26 26 28 29 27 25 24 22 20 20
4 4 4 5 4 3 3 3 4 4 1 0 0 1 1 1 1 1 1 3 3 2 5 7 3 3 3 5 5 5 3 2 0 2 1 1 0 1 1 1 1 0 2 1 1 1 2 2 2 5 13 23 26 23 23 25 25 25 26 25 21 20 22 26 26 25 26 27 27 27 28 29 29 28 28 27 27 26 27 28 27 23 22 23 22 20 19
2 2 3 4 3 2 2 2 5 4 2 1 2 1 1 1 2 2 2 3 4 3 5 7 8 5 3 3 4 4 2 1 2 1 1 1 1 1 1 0 1 1 1 0 0 1 2 1 3 10 20 26 26 24 25 27 28 29 28 24 21 21 24 27 28 27 27 27 27 28 29 28 26 25 26 27 27 27 26 25 24 23 24 25 23 21 21
1 1 2 3 2 1 1 1 3 3 2 1 2 3 3 3 3 4 6 8 8 6 6 8 10 9 6 5 5 3 1 2 2 1 1 0 1 1 1 1 1 1 1 0 1 1 1 1 4 13 22 26 26 25 26 27 30 32 29 24 23 25 26 28 29 29 28 28 28 28 29 27 25 24 25 27 28 27 24 22 22 23 25 25 23 22 22
3 3 2 2 2 1 1 1 1 1 1 1 2 3 4 5 7 8 11 15 17 14 13 14 12 8 7 7 4 1 2 4 2 1 2 2 1 1 0 1 2 1 0 1 2 2 3 3 7 17 25 27 26 26 26 27 29 31 28 25 26 27 26 27 30 30 29 28 28 28 28 27 25 24 24 24 24 24 23 23 23 23 22 24 25 23 21
5 5 3 2 2 2 2 1 3 4 4 5 7 11 13 14 15 16 17 17 15 10 6 13 14 9 6 7 4 2 3 4 1 1 1 2 0 1 1 2 1 1 1 1 3 3 3 6 13 23 29 30 28 27 28 27 28 29 27 25 26 26 24 24 28 30 29 29 28 27 26 25 23 22 23 23 23 24 25 26 27 24 22 23 25 24 21
5 5 4 2 2 1 2 4 6 9 11 12 13 16 18 18 18 21 22 17 9 6 6 1 6 6 5 6 4 2 2 3 1 0 0 2 1 1 2 1 1 2 1 3 5 5 3 13 22 28 31 31 30 31 30 28 28 29 28 27 27 27 25 25 26 27 28 28 28 26 25 25 25 25 25 25 26 26 25 25 27 26 23 21 23 23 23
5 5 4 3 3 4 6 8 7 8 13 17 19 20 20 19 19 20 17 11 6 4 6 5 2 1 3 5 3 0 0 2 1 0 1 2 2 0 0 1 2 3 3 4 5 3 7 21 30 31 30 31 32 32 31 29 28 30 30 29 28 28 28 27 26 25 26 28 27 26 26 26 26 27 27 26 26 27 27 25 26 25 22 20 22 23 23
5 4 5 4 4 6 8 9 6 5 8 14 18 19 19 17 15 11 6 3 4 6 6 4 2 0 1 3 2 1 1 2 2 2 1 1 1 2 1 2 3 3 5 6 5 4 14 26 31 30 30 31 32 31 31 31 29 29 31 31 29 28 28 28 27 26 27 29 29 28 28 28 27 28 29 27 25 25 26 26 26 25 22 21 22 23 22
4 4 6 8 9 10 11 10 7 6 7 11 15 15 15 14 13 10 7 4 5 6 2 1 1 1 1 1 1 1 1 2 3 3 2 2 2 3 2 3 4 5 8 12 8 13 23 29 31 30 30 30 31 31 31 31 31 30 30 31 30 29 28 29 28 27 28 29 29 29 30 29 28 28 29 28 25 24 23 23 25 26 23 21 21 22 22
4 4 6 10 14 17 17 15 14 13 15 18 19 15 11 9 9 10 9 7 6 8 4 3 2 2 2 1 2 1 1 1 1 2 2 2 2 3 4 5 7 11 16 15 11 24 29 28 29 30 29 28 30 30 29 29 30 31 30 30 31 30 29 30 30 29 29 30 30 29 30 30 28 27 28 28 28 28 27 25 24 24 22 21 21 21 22
Wind_Direction
346 350 355 357 356 356 357 349 346 346 335 328 328 312 310 287 287 237 156 157 163 171 198 251 212 230 261 260 268 274 276 277 287 311 311 303 306 282 258 272 266 270 286 285 273 222 188 211 218 166 173 203 204 194 191 191 195 190 197 221 195 151 122 145 195 262 190 178 181 175 183 212 237 250 241 177 180 180 165 172 200 214 146 106 86 89 140
347 342 346 353 356 0 6 360 344 333 308 292 310 319 308 287 293 175 157 164 172 189 253 250 223 258 255 255 275 277 270 269 281 304 297 299 344 2 291 282 276 290 292 287 298 290 210 211 227 195 164 199 202 190 191 198 197 183 187 197 184 182 149 119 139 174 162 172 198 189 192 205 222 250 270 237 188 169 165 194 235 266 187 126 118 128 154
356 345 341 350 356 1 8 5 349 332 310 295 307 318 311 300 294 144 159 173 196 233 262 281 278 285 277 277 285 279 270 265 267 284 285 286 306 31 292 289 286 291 290 288 310 304 267 203 219 226 178 185 195 185 188 197 195 185 189 178 162 170 151 115 135 162 177 186 207 204 189 196 221 229 242 246 214 180 162 148 183 230 149 110 121 140 107
0 354 345 349 357 0 2 1 352 343 330 311 306 310 317 329 105 149 169 187 213 239 255 260 257 280 296 294 286 285 289 287 283 281 264 249 245 203 239 277 280 292 301 302 311 295 294 312 222 218 187 166 189 185 186 192 194 191 184 166 146 129 137 136 135 155 178 184 212 227 168 175 204 224 236 245 239 218 187 143 185 186 115 59 138 143 134
0 1 4 8 9 4 359 360 357 354 340 318 317 320 319 330 100 153 161 192 220 241 247 238 228 251 261 267 298 305 310 320 312 299 288 285 286 241 250 272 273 296 311 301 300 305 331 342 269 195 182 105 165 181 194 198 192 183 169 155 141 66 83 163 144 147 154 111 18 344 315 192 196 201 224 238 227 224 219 176 160 153 111 13 186 144 137
15 19 28 26 14 359 354 358 359 357 343 323 333 339 325 310 317 350 102 182 205 222 243 241 240 250 251 264 303 300 303 318 314 306 327 347 342 332 280 295 309 328 328 322 314 336 2 345 304 172 160 30 144 175 244 216 169 147 139 151 139 87 120 183 166 160 130 80 42 8 1 324 203 198 218 241 209 198 198 165 163 162 142 160 175 152 138
24 26 26 15 3 353 350 353 354 348 334 322 332 335 324 317 318 330 354 302 256 264 283 283 270 258 255 279 288 275 286 293 286 299 340 342 320 314 292 319 356 352 337 355 7 356 33 350 322 21 141 174 139 143 275 229 153 133 131 152 118 102 150 171 151 169 130 86 62 38 39 41 37 41 22 12 65 119 106 81 98 111 116 132 141 132 120
18 17 13 6 0 354 349 347 343 338 329 327 329 315 314 327 319 318 335 316 273 280 309 317 290 273 252 259 265 262 277 294 294 299 320 321 314 319 303 322 4 349 332 19 31 340 81 128 294 314 114 138 74 89 103 233 154 139 132 132 104 100 200 188 104 91 78 83 71 60 73 79 59 36 25 29 51 75 87 95 93 89 97 113 116 110 103
6 4 2 360 356 352 344 335 329 327 323 326 334 319 318 327 314 295 315 316 279 291 312 276 274 283 227 249 286 288 299 320 324 316 299 277 275 291 306 340 16 336 329 23 14 325 19 103 283 315 76 114 62 77 4 333 167 161 131 85 106 101 36 2 77 71 30 66 84 84 81 76 61 35 16 17 37 59 76 91 101 115 122 119 119 126 140
359 356 355 355 353 351 341 324 310 308 305 306 311 310 321 336 329 294 291 290 274 288 288 261 268 289 286 296 303 303 308 309 309 307 290 274 261 266 273 304 42 320 315 4 331 325 348 336 318 0 59 70 46 48 3 352 3 175 129 76 95 112 96 51 84 95 5 17 79 92 65 45 37 12 347 346 48 77 71 47 53 111 129 134 148 160 148
355 352 352 351 351 350 342 324 296 285 286 284 290 300 326 344 338 318 294 266 294 338 347 313 311 282 291 311 314 304 301 296 289 285 285 287 290 287 275 179 84 315 293 317 313 320 342 339 359 37 48 36 28 27 15 10 5 347 99 110 85 90 102 93 91 104 341 327 13 51 58 78 285 299 302 100 103 95 84 62 47 74 102 112 123 132 136
353 351 352 351 351 349 343 332 303 282 277 273 282 296 321 340 339 334 325 301 333 355 4 318 313 294 288 302 308 294 285 284 281 273 267 272 291 294 286 149 137 285 305 322 316 329 6 10 27 37 36 29 25 26 28 26 7 354 29 113 109 92 98 75 62 105 125 337 22 82 173 227 266 326 38 88 103 100 93 80 55 67 99 106 109 125 137
357 355 355 354 353 352 349 340 319 299 285 274 281 287 279 324 351 348 342 348 304 307 289 291 299 289 279 289 302 297 295 295 286 269 253 241 271 290 280 168 190 262 58 37 34 50 29 16 30 25 17 15 22 23 23 30 19 4 15 66 93 111 116 90 63 99 105 36 44 131 202 267 52 78 83 96 102 96 89 76 54 66 107 114 117 128 135
1 1 359 358 358 359 357 354 344 329 309 293 299 294 261 268 275 308 321 331 265 266 260 261 277 275 276 300 312 299 297 308 313 289 238 215 252 275 250 182 169 127 118 90 48 50 43 27 37 17 355 6 22 3 355 15 26 10 5 23 46 73 110 112 96 81 103 107 63 50 95 231 174 163 165 138 127 142 114 90 86 110 121 123 128 135 139
5 4 3 3 4 5 4 6 11 13 18 5 288 245 252 254 237 242 277 287 305 290 265 243 248 268 278 292 296 292 296 323 335 323 229 183 215 256 235 190 129 111 108 90 51 44 37 53 62 43 349 7 51 5 332 343 359 357 4 30 45 41 59 122 116 81 99 112 98 102 176 218 202 211 237 129 118 128 128 101 100 136 141 140 139 140 142
6 7 7 9 12 12 10 12 24 70 98 103 169 163 167 224 352 316 271 272 305 277 261 261 269 290 310 284 287 325 57 338 310 288 250 94 115 218 212 167 136 129 108 85 77 68 43 56 84 88 299 300 99 72 330 283 332 348 7 35 48 39 26 87 105 110 128 116 121 168 205 250 207 209 217 125 126 125 108 81 122 158 151 148 144 142 145
7 9 10 12 15 18 18 16 17 47 135 150 154 138 130 92 18 332 289 275 263 272 294 293 270 271 352 317 301 356 110 238 266 298 337 301 190 182 162 133 114 125 116 86 73 76 64 69 84 84 220 241 116 159 239 88 79 17 22 37 45 31 352 58 107 122 132 114 116 158 233 261 206 180 159 146 140 119 92 100 219 165 154 153 150 148 150
5 10 11 12 16 20 23 24 23 25 52 103 144 158 133 66 14 325 293 287 259 283 324 326 286 175 86 343 276 242 214 248 276 303 317 316 304 158 143 138 103 115 126 100 76 85 81 93 104 85 15 269 110 169 232 61 91 138 93 62 63 42 327 66 106 108 99 104 116 137 254 255 175 154 164 160 139 102 97 226 189 153 150 154 153 152 154
2 8 12 13 15 19 24 27 28 31 42 57 69 85 58 43 26 336 302 296 258 272 322 337 7 65 55 19 18 81 93 70 43 25 21 350 324 330 125 134 56 81 140 99 87 103 99 124 139 114 211 246 193 151 163 132 132 138 108 97 108 140 343 31 86 108 106 101 104 98 330 285 182 162 174 161 136 142 233 158 145 145 147 153 156 156 157
360 4 10 13 14 18 22 25 27 29 30 35 32 16 13 21 17 353 318 304 277 281 313 343 18 36 29 21 30 55 78 88 88 89 194 256 305 351 69 94 355 13 58 67 92 124 129 146 165 165 190 213 171 123 127 141 156 131 118 136 169 153 126 79 81 119 107 76 93 120 197 224 175 152 165 166 164 176 139 122 130 142 146 151 156 156 156
357 359 6 11 14 16 19 21 24 25 23 20 16 13 10 7 2 352 334 315 285 281 322 353 356 0 19 27 26 41 64 78 87 113 255 284 308 359 111 190 280 331 83 102 126 156 162 164 182 176 160 204 46 111 123 112 71 7 72 125 170 255 162 161 212 222 129 127 183 215 189 169 166 157 136 120 135 143 137 130 133 144 149 152 155 155 157
351 354 360 7 11 15 18 19 20 20 19 17 11 11 17 11 358 345 330 317 297 289 319 339 340 348 21 29 22 30 44 39 35 40 32 4 336 16 75 48 22 17 93 118 127 220 214 167 179 160 138 115 102 133 140 116 67 330 360 88 346 293 136 120 114 157 118 122 163 131 88 98 122 128 119 119 127 138 141 138 139 147 153 156 155 155 157
341 347 354 1 7 12 15 17 17 15 14 12 5 1 12 20 6 339 317 310 308 312 323 337 356 15 28 29 22 24 31 28 27 33 32 21 9 55 66 54 11 331 335 96 137 240 214 172 186 158 136 151 149 145 144 113 117 253 356 69 93 157 114 98 99 117 89 71 81 96 92 92 104 115 120 125 131 136 140 139 141 148 155 158 157 156 155
328 334 344 354 1 7 9 10 11 10 6 5 2 354 359 20 18 357 334 315 308 314 324 347 17 21 21 25 23 20 23 26 27 27 27 29 45 63 64 46 357 339 354 18 332 299 272 241 231 116 111 279 157 135 133 125 148 172 129 90 124 179 109 90 102 136 108 76 81 98 100 103 108 113 120 127 131 135 139 140 142 147 152 155 155 155 153
316 318 327 340 349 355 360 360 0 2 359 356 356 351 346 4 21 6 343 326 311 297 292 319 24 31 27 25 26 24 22 23 29 31 30 37 56 68 50 24 16 1 339 343 346 340 308 271 359 98 108 350 13 94 116 123 135 138 110 102 164 155 111 98 87 80 91 112 116 106 106 112 117 119 124 128 132 136 139 138 140 142 143 147 153 155 154
305 304 307 320 331 338 346 350 353 356 353 348 350 347 340 356 19 357 334 335 330 298 258 258 44 51 34 22 24 30 25 24 35 42 38 40 50 52 29 15 14 2 332 330 9 39 57 48 39 86 102 6 16 63 93 99 95 83 67 63 97 118 117 107 104 104 94 104 120 115 110 114 123 127 130 132 133 134 134 135 139 140 138 141 147 151 152
300 296 294 299 311 321 331 341 348 352 349 343 342 339 336 360 14 333 328 346 351 328 246 318 339 18 31 23 25 32 31 28 35 43 48 49 50 46 32 24 25 26 20 6 33 45 52 50 37 53 73 44 45 67 83 82 75 75 52 10 42 98 121 104 110 129 139 147 146 138 124 124 134 133 133 135 134 133 133 135 139 141 142 143 144 145 148
298 291 287 286 293 302 314 329 342 348 350 345 337 336 347 11 357 318 319 340 351 326 273 299 311 330 21 20 18 33 40 36 35 43 50 50 48 47 40 36 38 42 48 58 54 44 51 47 10 1 36 45 51 70 74 63 58 64 46 15 31 96 153 154 136 151 177 165 153 141 125 125 132 132 132 136 138 138 137 138 141 145 147 147 146 147 149
298 290 284 281 283 287 297 315 329 341 349 346 337 342 359 228 269 318 323 331 343 337 311 306 314 338 40 2 352 23 48 48 44 46 49 48 48 47 42 42 48 55 63 69 65 59 65 51 30 43 36 23 57 111 74 53 57 71 67 53 48 85 164 173 160 139 146 152 147 136 128 129 133 134 134 137 141 142 140 142 146 149 149 150 150 150 150
300 292 284 279 278 279 285 301 316 330 347 350 347 357 21 197 234 324 337 333 342 342 328 313 315 331 57 10 350 358 38 57 61 59 57 55 53 49 46 51 56 61 66 68 63 62 67 39 41 63 38 15 40 114 108 91 101 80 73 73 68 76 129 159 155 144 143 146 141 134 133 132 133 135 137 139 143 144 143 145 149 151 152 154 153 152 152
300 293 283 278 278 275 276 287 299 310 333 348 351 359 7 288 286 333 341 331 333 335 327 308 290 274 185 85 13 352 11 57 83 85 80 73 65 62 62 64 66 67 68 66 59 53 53 36 36 42 21 13 33 88 118 110 112 89 78 82 84 89 103 125 140 142 142 139 133 129 131 134 135 137 139 142 146 146 146 149 152 153 154 155 154 153 152
297 294 285 277 275 274 274 278 284 290 305 326 329 322 316 315 320 328 332 324 317 322 324 315 297 282 178 160 235 327 338 325 231 99 85 79 80 82 78 78 82 81 72 63 52 36 36 51 54 35 16 15 36 74 82 85 111 129 106 93 93 102 111 120 130 136 138 138 134 128 130 140 144 143 143 146 149 149 151 153 153 152 153 152 150 148 148
294 292 286 278 272 272 273 273 276 279 282 290 297 297 302 315 322 324 329 325 313 312 313 296 268 283 268 211 196 269 298 296 282 96 75 62 74 107 96 91 92 84 63 55 65 55 42 66 76 49 36 47 68 74 59 82 108 115 112 106 103 107 113 119 126 131 136 142 143 141 143 150 151 147 145 148 150 152 154 155 155 155 156 156 153 151 151
290 288 288 282 272 269 271 271 275 279 273 270 281 291 294 303 315 321 323 318 313 311 301 279 268 283 268 221 161 258 325 351 37 71 59 36 29 94 120 110 70 49 47 71 99 112 67 78 97 79 52 62 74 74 61 105 109 111 113 114 116 118 118 120 126 131 137 145 149 147 148 150 150 147 147 149 153 156 158 158 158 159 156 152 150 150 149
287 286 289 284 274 270 271 270 273 275 265 259 271 288 294 303 312 314 307 304 310 319 310 300 306 306 282 284 72 185 354 45 57 70 91 73 59 77 105 100 33 27 63 108 107 108 52 57 86 101 82 76 74 79 156 130 116 115 118 121 125 129 129 129 133 139 145 148 147 145 146 149 150 149 150 153 157 160 162 162 164 161 151 144 144 145 146
284 282 285 287 281 273 267 264 267 270 263 258 268 279 283 292 299 294 275 274 279 273 280 307 310 280 260 275 214 197 177 148 146 143 122 104 76 82 102 88 44 46 66 69 69 44 28 44 59 50 49 64 64 112 140 133 123 121 125 131 138 142 142 142 146 147 148 148 147 145 148 150 151 151 153 157 160 163 165 167 167 159 148 144 145 148 150
285 286 285 280 273 270 271 271 273 272 268 268 278 283 281 282 288 279 256 256 262 257 257 274 284 272 278 282 178 157 173 198 197 171 99 86 46 26 89 89 97 58 54 51 38 37 51 64 75 57 30 67 98 113 126 130 129 129 132 138 149 151 147 148 151 147 144 145 146 147 149 151 153 156 158 159 163 167 168 168 166 156 148 147 150 153 154
277 281 280 266 265 284 295 207 199 257 271 276 285 292 283 271 275 268 243 238 246 248 241 232 252 268 274 272 151 121 9 309 260 356 73 100 4 350 29 68 134 224 47 34 322 71 61 60 72 74 67 95 107 113 123 131 135 138 142 149 157 154 148 150 153 148 144 145 151 153 153 153 156 160 161 162 166 169 169 168 166 158 152 153 157 159 157
270 281 323 304 278 275 246 163 184 251 279 273 274 282 269 246 248 247 217 211 224 240 228 224 250 263 268 25 112 135 52 21 344 340 84 106 46 335 280 174 139 120 112 237 255 117 84 48 69 94 102 117 118 125 136 142 143 149 155 157 157 155 150 151 153 152 151 154 158 159 157 157 159 163 164 165 167 170 171 170 166 158 154 156 159 159 157
268 291 17 17 306 266 235 219 239 274 273 250 241 247 247 230 220 215 206 204 230 243 230 241 266 263 230 92 43 186 103 57 344 321 107 89 22 311 240 230 154 113 102 237 221 159 123 117 121 126 168 181 146 143 150 155 155 158 159 157 156 156 153 152 155 158 158 159 161 162 163 163 164 166 168 169 170 173 173 170 166 161 159 160 160 158 158
298 311 307 309 322 314 271 245 215 213 244 258 238 223 226 227 234 257 257 202 261 249 228 242 281 279 219 100 26 74 123 88 352 2 92 71 350 4 30 25 137 105 73 225 197 161 110 97 133 161 172 164 156 154 158 161 161 160 158 156 156 157 156 156 159 163 163 163 164 165 166 166 167 169 172 174 175 175 172 167 165 163 160 160 163 167 170
334 330 303 292 301 302 292 267 216 207 236 285 265 232 222 220 246 274 240 213 283 274 209 204 277 346 89 98 66 56 108 111 16 10 50 303 340 20 86 73 53 60 231 211 182 148 117 125 144 183 164 159 159 162 164 162 160 159 158 157 157 160 163 163 163 166 168 168 168 169 170 171 172 174 175 176 176 174 170 166 165 163 159 162 171 177 177
313 303 314 315 295 265 261 249 209 198 202 30 146 267 304 224 234 272 221 223 258 263 201 186 151 60 95 125 99 66 80 142 310 350 42 154 203 18 35 38 53 169 232 221 131 131 181 169 173 179 165 160 163 168 168 164 162 160 159 160 164 168 170 168 167 168 171 170 170 172 173 174 176 177 177 176 175 173 169 166 167 168 166 168 174 177 176
276 282 322 322 289 234 195 170 172 178 187 148 158 173 228 237 231 231 229 230 224 208 197 189 176 174 198 179 126 97 91 176 208 296 43 110 142 80 57 73 208 191 199 309 295 225 220 178 149 156 156 158 165 171 169 165 164 161 160 166 175 177 174 173 172 172 174 175 175 174 175 178 180 181 181 179 174 168 160 157 163 172 172 171 175 178 179
332 316 312 302 278 220 162 168 183 193 209 194 171 180 198 213 223 232 243 247 240 218 192 181 177 178 182 162 133 129 169 162 155 199 219 128 72 80 148 237 248 119 113 251 266 241 225 122 139 151 154 159 167 172 169 167 167 164 162 170 182 183 181 181 179 176 176 177 177 178 180 181 178 173 170 169 168 166 162 161 168 173 171 171 177 182 183
349 307 284 286 282 256 205 195 190 171 171 191 211 219 223 229 237 243 248 253 255 246 217 192 180 170 162 157 149 167 187 163 148 190 166 129 78 284 259 3 8 43 118 281 271 227 201 184 166 162 162 164 168 169 168 168 168 165 165 176 187 189 188 185 182 179 178 177 176 178 180 179 173 169 167 165 166 171 176 178 179 179 176 177 183 185 184
343 312 302 294 268 231 194 226 269 281 275 253 237 238 244 250 255 262 264 263 268 275 226 186 179 172 163 162 162 197 201 179 150 65 129 123 127 289 18 35 7 224 182 227 244 240 203 173 169 168 167 168 169 169 169 171 171 170 172 181 188 188 184 177 172 172 173 173 172 174 175 174 175 180 182 178 175 176 178 180 183 187 187 187 190 188 181
328 315 310 291 262 205 193 226 256 277 282 275 262 254 252 250 254 263 268 267 277 344 11 130 175 170 163 164 168 197 201 171 129 58 94 87 73 21 22 30 259 258 227 205 230 253 195 169 171 171 170 171 172 171 172 176 177 176 177 181 183 182 180 176 172 170 171 171 170 171 172 171 173 179 183 182 180 179 179 183 188 190 188 188 192 190 183
307 307 293 271 287 295 266 248 249 260 262 262 264 263 258 253 250 255 260 258 253 303 331 334 352 115 149 159 160 250 211 147 124 94 78 87 96 171 192 164 235 267 252 218 233 249 179 171 171 170 170 172 174 174 176 178 179 178 180 181 181 180 180 179 177 176 177 179 179 177 177 177 178 180 182 184 183 183 184 187 187 186 184 187 192 191 186
264 268 263 255 278 297 285 272 272 266 252 254 258 258 256 259 262 266 275 264 228 244 278 305 321 356 138 139 124 36 248 183 136 104 108 144 162 162 178 223 229 228 234 243 247 187 164 166 166 166 169 173 175 176 178 180 181 181 182 182 182 182 181 179 179 179 180 183 184 183 182 184 185 184 185 186 185 183 183 186 188 188 190 194 196 193 189
236 240 248 247 255 273 284 286 290 291 278 271 267 261 256 256 259 268 292 289 211 191 204 291 247 146 82 98 165 176 162 150 125 118 152 210 181 147 185 234 226 224 253 260 229 165 158 162 164 165 171 176 177 178 181 183 183 183 184 184 185 186 184 183 184 184 183 183 185 185 185 186 188 187 187 189 188 182 181 187 193 196 199 201 200 199 200
236 253 270 268 265 268 275 281 284 285 286 288 291 297 306 295 259 243 252 255 201 172 186 250 240 133 102 197 208 143 76 80 111 130 163 199 179 173 207 228 225 240 263 264 195 159 160 167 169 170 174 179 180 180 182 184 183 184 186 187 187 188 187 187 188 187 185 185 187 188 188 188 188 186 188 192 194 193 194 194 193 194 199 204 205 207 211